Livingston, MT

5:38 PM MDT on May 23, 2018 (GMT -0600)
Mission

Weather History for KLVM - April, 2014

Change the Weather History Date:

Tuesday, April 1, 2014

  Actual Average Record
Temperature  
Mean Temperature 35 °F 39 °F  
Max Temperature 44 °F 51 °F 72 °F (1966)
Min Temperature 26 °F 27 °F -1 °F (2018)
Degree Days  
Heating Degree Days 30 26  
Month to date heating degree days 30 26  
Since 1 July heating degree days 6202 6285  
Cooling Degree Days 0 0  
Month to date cooling degree days 0 0  
Year to date cooling degree days 0 0  
Moisture  
Dew Point 24 °F    
Average Humidity 68    
Maximum Humidity 85    
Minimum Humidity 51    
Precipitation  
Precipitation 0.00 in 0.04 in 0.40 in (2007)
Month to date precipitation 0.00 0.04  
Year to date precipitation 3.08 1.87  
Sea Level Pressure  
Sea Level Pressure 29.83 in    
Wind  
Wind Speed 11 mph (ESE)    
Max Wind Speed 25 mph    
Max Gust Speed 31 mph    
Visibility 10 miles    
Events      
T = Trace of Precipitation, MM = Missing Value Source: NWS Daily Summary

Daily Weather History Graph

Daily Weather History Graph

Search for Another Location

Airport or City:

Astronomy

Apr. 01, 2014 Rise Set
Actual Time 7:01 AM MDT 7:50 PM MDT
Civil Twilight 6:31 AM MDT 8:20 PM MDT
Nautical Twilight 5:55 AM MDT 8:56 PM MDT
Astronomical Twilight 5:18 AM MDT 9:33 PM MDT
Moon 8:00 AM MDT (4/1) 10:24 PM MDT (4/1)
Length of Visible Light 13h 48m
Length of Day
12h 48m
Waxing Crescent, 5% of the Moon is Illuminated
Apr 1
Waxing Crescent
Apr 7
First Quarter
Apr 15
Full
Apr 22
Last Quarter
Apr 29
New

Hourly Weather History & Observations

Time (MDT) Temp. Windchill Dew Point Humidity Pressure Visibility Wind Dir Wind Speed Gust Speed Precip Events Conditions
12:53 AM 28.0 °F 20.0 °F 24.1 °F 85% 29.96 in 10.0 mi East 8.1 mph - N/A   Overcast
1:53 AM 28.0 °F 20.8 °F 24.1 °F 85% 29.93 in 10.0 mi East 6.9 mph - N/A   Overcast
2:53 AM 27.0 °F 19.5 °F 23.0 °F 85% 29.91 in 10.0 mi East 6.9 mph - N/A   Overcast
3:28 AM 27.0 °F 20.5 °F 23.0 °F 85% 29.82 in 10.0 mi ESE 5.8 mph - N/A   Overcast
3:53 AM 27.0 °F 21.6 °F 23.0 °F 85% 29.90 in 10.0 mi ESE 4.6 mph - N/A   Overcast
4:53 AM 26.1 °F 19.4 °F 21.9 °F 84% 29.89 in 10.0 mi SE 5.8 mph - N/A   Overcast
5:42 AM 27.0 °F - 21.9 °F 81% 29.79 in 10.0 mi Calm Calm - N/A   Overcast
5:53 AM 27.0 °F - 21.9 °F 81% 29.87 in 10.0 mi Calm Calm - N/A   Overcast
6:53 AM 26.1 °F 19.4 °F 21.9 °F 84% 29.87 in 10.0 mi SSE 5.8 mph - N/A   Overcast
7:46 AM 26.1 °F 16.2 °F 21.0 °F 81% 29.77 in 10.0 mi SSE 10.4 mph - N/A   Overcast
7:53 AM 26.1 °F 16.8 °F 21.0 °F 81% 29.87 in 10.0 mi SSE 9.2 mph - N/A   Overcast
8:53 AM 28.0 °F 21.7 °F 21.9 °F 78% 29.87 in 10.0 mi SE 5.8 mph - N/A   Overcast
9:42 AM 28.9 °F 21.9 °F 23.0 °F 78% 29.77 in 10.0 mi SSE 6.9 mph - N/A   Scattered Clouds
9:53 AM 30.0 °F 25.2 °F 23.0 °F 75% 29.86 in 10.0 mi SE 4.6 mph - N/A   Scattered Clouds
10:33 AM 30.9 °F 26.2 °F 24.1 °F 76% 29.77 in 10.0 mi SSE 4.6 mph - N/A   Mostly Cloudy
10:53 AM 32.0 °F 28.7 °F 24.1 °F 73% 29.85 in 10.0 mi NW 3.5 mph - N/A   Overcast
11:53 AM 32.0 °F - 24.1 °F 73% 29.85 in 10.0 mi Calm Calm - N/A   Scattered Clouds
12:14 PM 34.0 °F 31.0 °F 25.0 °F 70% 29.75 in 10.0 mi NNW 3.5 mph - N/A   Mostly Cloudy
12:53 PM 37.0 °F - 27.0 °F 67% 29.81 in 10.0 mi Calm Calm - N/A   Overcast
1:32 PM 39.0 °F 36.8 °F 27.0 °F 62% 29.74 in 10.0 mi Variable 3.5 mph - N/A   Scattered Clouds
1:53 PM 39.9 °F 34.5 °F 27.0 °F 60% 29.80 in 10.0 mi East 8.1 mph - N/A   Scattered Clouds
2:53 PM 42.1 °F 36.6 °F 27.0 °F 55% 29.78 in 10.0 mi East 9.2 mph - N/A   Clear
3:53 PM 43.0 °F 36.0 °F 27.0 °F 53% 29.77 in 10.0 mi East 13.8 mph 21.9 mph N/A   Clear
4:53 PM 43.0 °F 34.8 °F 26.1 °F 51% 29.76 in 10.0 mi East 18.4 mph - N/A   Clear
5:53 PM 41.0 °F 31.4 °F 24.1 °F 51% 29.77 in 10.0 mi East 21.9 mph - N/A   Clear
6:53 PM 37.9 °F 27.6 °F 24.1 °F 57% 29.79 in 10.0 mi East 20.7 mph - N/A   Clear
7:53 PM 33.1 °F 21.2 °F 26.1 °F 75% 29.82 in 10.0 mi East 20.7 mph - N/A   Clear
8:53 PM 30.9 °F 19.4 °F 25.0 °F 79% 29.84 in 10.0 mi East 17.3 mph - N/A   Clear
9:53 PM 30.9 °F 18.4 °F 25.0 °F 79% 29.83 in 10.0 mi East 20.7 mph - N/A   Clear
10:53 PM 30.0 °F 17.5 °F 25.0 °F 82% 29.84 in 10.0 mi East 19.6 mph - N/A   Partly Cloudy
11:36 PM 30.0 °F 18.7 °F 25.0 °F 82% 29.76 in 10.0 mi East 16.1 mph 23.0 mph N/A   Mostly Cloudy
11:53 PM 30.0 °F 17.9 °F 25.0 °F 82% 29.84 in 10.0 mi East 18.4 mph - N/A   Overcast